Regional Weather Roundup
Issued by NWS

Current Version | Previous Version | Text Only | Print | Product List | Glossary On
Versions: 1 2 3 4 5 6 7 8 9 10 11 12 13 14 15 16 17 18 19 20 21 22 23 24 25 26 27 28 29 30 31 32 33 34 35 36 37 38 39 40 41 42 43 44 45 46 47 48 49 50
000
ASUS44 KFWD 200915
RWRTX
NORTH TEXAS HOURLY WEATHER ROUNDUP
NATIONAL WEATHER SERVICE FORT WORTH TX
300 AM CST MON FEB 20 2017

NOTE: "FAIR" INDICATES FEW OR NO CLOUDS BELOW 12,000 FEET WITH NO
SIGNIFICANT WEATHER AND/OR OBSTRUCTIONS TO VISIBILITY.

TXZ118-119-201000-
DALLAS/FORT WORTH METROPLEX

CITY           SKY/WX    TMP DP  RH WIND       PRES   REMARKS
DFW AIRPORT    TSTM      60  57  89 NW6       29.94F FOG
DALLAS LOVE    TSTM      59  56  89 W5        29.96S FOG
FTW MEACHAM    RAIN      58  54  86 CALM      29.91F FOG
DAL-EXECUTIVE  TSTM      58  57  97 NW14      29.93F FOG
FTW-ALLIANCE   LGT RAIN  57  55  93 CALM      29.91F
FTW-NAS-JRB    LGT RAIN  58  56  93 N6        29.92F
FTW-SPINKS     LGT RAIN  57  55  94 CALM      29.93F
ARLINGTON      RAIN      58  56  93 N3        29.93F
GRAND PRAIRIE  CLOUDY    58  58 100 W6        29.98F
ADDISON        HVY RAIN  57  56  95 W5        29.98R
MESQUITE       CLOUDY    58  56  94 W10       29.98R
LANCASTER      RAIN      58  55  92 NW12      29.95F
$$

TXZ091>094-102>105-117-120-121-131>134-201000-
NORTH CENTRAL TEXAS

CITY           SKY/WX    TMP DP  RH WIND       PRES   REMARKS
SHRMAN/DENISON LGT RAIN  57  56  95 W13       29.95S
GAINESVILLE    LGT RAIN  56  54  91 W8        29.95F
BOWIE          LGT RAIN  56  56 100 CALM      29.93F
BRIDGEPORT     LGT RAIN  55  55 100 CALM      29.95F
DECATUR        LGT RAIN  55  54  95 W3        29.94F
DENTON         RAIN      57  56  96 SW3       29.96R
MCKINNEY       RAIN      58  57  97 W13       29.96R
BONHAM         RAIN      57  55  94 W16G23    29.93R
GREENVILLE     RAIN      59  55  88 W14G21    29.95R
ROCKWALL       RAIN      58  57  97 W14       29.96R
TERRELL        TSTM      59  55  87 W15       29.97R
WAXAHACHIE     RAIN      57  57 100 NW7       29.94F
CLEBURNE       CLOUDY    55  55 100 N9        29.91F
GRANBURY       CLOUDY    58  55  92 NE6       29.87F
$$

TXZ083>090-098>101-113>116-127>130-139>142-154-155-201000-
WESTERN NORTH TEXAS

CITY           SKY/WX    TMP DP  RH WIND       PRES   REMARKS
WICHITA FALLS  LGT RAIN  55  53  93 SE16      29.85F
WF-KICKAPOO    LGT RAIN  56  54  93 SE17      29.86F
VERNON         CLOUDY    56  51  83 SW6       29.84F
ABILENE        CLOUDY    52  51  97 S7        29.86F
ABILENE-DYESS  CLOUDY    53  53 100 W8        29.85F
GRAHAM         CLOUDY    55  55 100 E6        29.83F
BRECKENRIDGE   MOCLDY    56  55  94 SE3       29.83F
CISCO          CLOUDY    54  54 100 SE6       29.86F
RANGER         MOCLDY    52  52 100 CALM      29.85F
MINERAL WELLS  LGT RAIN  56  54  93 NE10      29.84F
STEPHENVILLE   CLOUDY    55  53  91 NE8       29.84F
COMANCHE       MOCLDY    54  54 100 MISG      29.85F
BROWNWOOD      MOCLDY    54  54 100 W5        29.87R
COLEMAN        CLOUDY    54  53  97 CALM      29.88S
$$

TXZ143>147-156>162-174-175-201000-
CENTRAL TEXAS

CITY           SKY/WX    TMP DP  RH WIND       PRES   REMARKS
WACO           CLOUDY    58  56  93 MISG      29.89F
WACO-MCGREGOR  CLOUDY    57  56  96 NE12      29.88F
HILLSBORO      LGT RAIN  58  56  95 NW10      29.91F
CORSICANA      TSTM      59  58  96 NW13      29.98F FOG
MEXIA          TSTM      57  56  95 NW17      29.95F
TEMPLE         LGT RAIN  58  56  93 N12       29.86F
KILLEEN        LGT RAIN  57  55  94 N5        29.84R
KILLEEN-SKYLRK CLOUDY    58  56  93 NE8       29.85F
FORT HOOD      LGT RAIN  55  55 100 NE10      29.82R
GATESVILLE     CLOUDY    57  55  94 NE6       29.85F
HAMILTON       CLOUDY    56  56 100 NE3       29.83F
LAMPASAS       CLOUDY    55  55  97 CALM      29.82R
$$

TXZ095>097-106>112-122>126-135>138-148>153-164>167-201000-
EAST TEXAS

CITY           SKY/WX    TMP DP  RH WIND       PRES   REMARKS
PARIS          CLOUDY    68  63  83 S15       29.86F
SULPHUR SPRNGS CLOUDY    63  57  81 W21G38    29.96R
MOUNT PLEASANT CLOUDY    69  63  80 SE8       29.91S
GILMER         CLOUDY    69  64  86 S9        29.91R
MINEOLA        CLOUDY    68  66  94 S9        29.89R FOG
TYLER          CLOUDY    69  66  90 S10       29.89S
LONGVIEW       CLOUDY    70  66  87 S12       29.90R
MARSHALL       CLOUDY    67  64  87 S9        29.94R
ATHENS         CLOUDY    57  57 100 W14G29    29.99R
JACKSONVILLE   CLOUDY    67  67  99 S10G21    29.93R
HENDERSON      CLOUDY    69  66  89 SE13      29.92S
CENTER         CLOUDY    72  70  93 S3        29.96R
NACOGDOCHES    CLOUDY    68  64  88 SE9       29.91F
LUFKIN         CLOUDY    70  66  87 SE13      29.92R
$$

SUPPLEMENTAL OBSERVATIONS (CENTRAL)

CITY           SKY/WX    TMP DP  RH WIND       PRES   REMARKS
DENISON DAM      N/A     55  52  88 W22         N/A
CADDO GRASSLND   N/A     59  55  88 W14G30      N/A
PAT MAYSE LAKE   N/A     66  64  94 SE15        N/A
GREENVILLE       N/A     57  54  88 W20G40      N/A
CEDAR HILL       N/A     57  54  88 NE1G10      N/A
ATHENS           N/A     57  54  88 W9G26       N/A
LAKE LIMESTONE   N/A     57  55  94 NW12G26     N/A
MCGREGOR         N/A     57  55  94 NE10        N/A
TEMPLE           N/A     57  54  88 NE15        N/A
$$

SUPPLEMENTAL OBSERVATIONS (WEST)

CITY           SKY/WX    TMP DP  RH WIND       PRES   REMARKS
MILLERS CREEK    N/A     55  54  94 S12         N/A
POSSUM KINGDOM   N/A     55  54  94 E5G16       N/A
LBJ GRASSLAND    N/A     55  54  94 N1          N/A
GRANBURY         N/A     55  54  94 NE7         N/A
COMANCHE         N/A     54  52  94 W3          N/A
HAMBY            N/A     54  50  87 S6          N/A
IVIE RESERVOIR   N/A     54  52  94 S5          N/A
COLORADO BEND    N/A     55  52  88 NW5         N/A
$$

SUPPLEMENTAL OBSERVATIONS (EAST)

CITY           SKY/WX    TMP DP  RH WIND       PRES   REMARKS
CLARKSVILLE      N/A     66  63  88 SE7         N/A
TEXARKANA        N/A     64  59  82 SE5         N/A
LINDEN           N/A     66  61  82 S6          N/A
CADDO LAKE       N/A    N/A N/A N/A SE3         N/A
GILMER           N/A     70  64  83 S10         N/A
HENDERSON        N/A     70  66  88 S10         N/A
LUFKIN           N/A     70  64  83 MISG        N/A
N SABINE NF      N/A     70  66  88 MISG        N/A
S SABINE NF      N/A     70  66  88 SE3         N/A
$$

SUPPLEMENTAL OBSERVATIONS ARE A COLLECTION OF AUTOMATED INSTRUMENTS
THAT ARE MAINTAINED BY A VARIETY OF FEDERAL AND STATE AGENCIES.
CERTAIN ELEMENTS...SUCH AS HUMIDITY VALUES AND SUSTAINED WIND
SPEEDS...MAY BE APPROXIMATED.





USA.gov is the U.S. government's official web portal to all federal, state and local government web resources and services.